Time,TemperatureF,DewpointF,PressureIn,WindDirection,WindDirectionDegrees,WindSpeedMPH,WindSpeedGustMPH,Humidity,HourlyPrecipIn,Conditions,Clouds,dailyrainin,SoftwareType,DateUTC
2013-01-30 00:22:00,46.0,-99.9,-100.00,NW,316,1.0,5.0,-999,-99.99,,,-99.99,,2013-01-30 08:22:00,
2013-01-30 00:32:00,46.0,-99.9,-100.00,NW,316,1.0,5.0,-999,-99.99,,,-99.99,,2013-01-30 08:32:00,
2013-01-30 00:40:00,47.0,-99.9,-100.00,NNE,21,1.0,4.0,-999,-99.99,,,-99.99,,2013-01-30 08:40:00,
2013-01-30 01:22:00,47.0,-99.9,-100.00,NNE,21,1.0,4.0,-999,-99.99,,,-99.99,,2013-01-30 09:22:00,
2013-01-30 01:32:00,47.0,-99.9,-100.00,NNE,21,1.0,4.0,-999,-99.99,,,-99.99,,2013-01-30 09:32:00,
2013-01-30 02:02:00,47.0,-99.9,-100.00,East,81,4.0,7.0,-999,-99.99,,,-99.99,,2013-01-30 10:02:00,
2013-01-30 02:12:00,47.0,-99.9,-100.00,East,81,4.0,7.0,-999,-99.99,,,-99.99,,2013-01-30 10:12:00,
2013-01-30 02:22:00,47.0,-99.9,-100.00,East,81,4.0,7.0,-999,-99.99,,,-99.99,,2013-01-30 10:22:00,
2013-01-30 02:50:00,49.0,-99.9,-100.00,ESE,117,7.0,7.0,-999,-99.99,,,-99.99,,2013-01-30 10:50:00,
2013-01-30 03:33:00,49.0,-99.9,-100.00,ESE,117,7.0,7.0,-999,-99.99,,,-99.99,,2013-01-30 11:33:00,
2013-01-30 03:42:00,49.0,-99.9,-100.00,ESE,117,7.0,7.0,-999,-99.99,,,-99.99,,2013-01-30 11:42:00,
2013-01-30 05:00:00,55.0,-99.9,-100.00,East,101,10.0,14.0,-999,-99.99,,,-99.99,,2013-01-30 13:00:00,
2013-01-30 05:53:00,55.0,-99.9,-100.00,East,101,10.0,14.0,-999,-99.99,,,-99.99,,2013-01-30 13:53:00,
2013-01-30 06:33:00,53.0,-99.9,-100.00,East,91,4.0,5.0,-999,-99.99,,,-99.99,,2013-01-30 14:33:00,
2013-01-30 06:43:00,53.0,-99.9,-100.00,East,91,4.0,5.0,-999,-99.99,,,-99.99,,2013-01-30 14:43:00,
2013-01-30 06:53:00,51.0,-99.9,-100.00,East,89,4.0,7.0,-999,-99.99,,,-99.99,,2013-01-30 14:53:00,
2013-01-30 07:04:00,51.0,-99.9,-100.00,East,89,4.0,7.0,-999,-99.99,,,-99.99,,2013-01-30 15:04:00,
2013-01-30 07:12:00,51.0,-99.9,-100.00,East,89,4.0,7.0,-999,-99.99,,,-99.99,,2013-01-30 15:12:00,
2013-01-30 09:53:00,55.0,-99.9,-100.00,SE,125,5.0,11.0,-999,-99.99,,,-99.99,,2013-01-30 17:53:00,
2013-01-30 10:04:00,58.0,-99.9,-100.00,SE,141,10.0,10.0,-999,-99.99,,,-99.99,,2013-01-30 18:04:00,
2013-01-30 10:13:00,58.0,-99.9,-100.00,SE,141,10.0,10.0,-999,-99.99,,,-99.99,,2013-01-30 18:13:00,
2013-01-30 12:20:00,65.0,-99.9,-100.00,SE,137,0.0,16.0,-999,-99.99,,,-99.99,,2013-01-30 20:20:00,
2013-01-30 13:04:00,65.0,-99.9,-100.00,SE,137,0.0,16.0,-999,-99.99,,,-99.99,,2013-01-30 21:04:00,
2013-01-30 13:12:00,65.0,-99.9,-100.00,SE,137,0.0,16.0,-999,-99.99,,,-99.99,,2013-01-30 21:12:00,
2013-01-30 14:04:00,66.0,-99.9,-100.00,East,93,10.0,17.0,-999,-99.99,,,-99.99,,2013-01-30 22:04:00,
2013-01-30 14:12:00,66.0,-99.9,-100.00,East,93,10.0,17.0,-999,-99.99,,,-99.99,,2013-01-30 22:12:00,
2013-01-30 14:23:00,66.0,-99.9,-100.00,East,97,13.0,14.0,-999,-99.99,,,-99.99,,2013-01-30 22:23:00,
2013-01-30 14:33:00,66.0,-99.9,-100.00,East,97,13.0,14.0,-999,-99.99,,,-99.99,,2013-01-30 22:33:00,
2013-01-30 14:40:00,68.0,-99.9,-100.00,ESE,111,10.0,10.0,-999,-99.99,,,-99.99,,2013-01-30 22:40:00,
2013-01-30 15:00:00,66.0,-99.9,-100.00,ESE,104,8.0,15.0,-999,-99.99,,,-99.99,,2013-01-30 23:00:00,
2013-01-30 15:23:00,68.0,-99.9,-100.00,ESE,111,10.0,10.0,-999,-99.99,,,-99.99,,2013-01-30 23:23:00,
2013-01-30 15:33:00,68.0,-99.9,-100.00,ESE,111,10.0,10.0,-999,-99.99,,,-99.99,,2013-01-30 23:33:00,
2013-01-30 15:53:00,66.0,-99.9,-100.00,ESE,104,8.0,15.0,-999,-99.99,,,-99.99,,2013-01-30 23:53:00,
2013-01-30 18:00:00,56.0,-99.9,-100.00,ENE,75,2.0,3.0,-999,-99.99,,,-99.99,,2013-01-31 02:00:00,
2013-01-30 19:50:00,53.0,-99.9,-100.00,North,351,2.0,4.0,-999,-99.99,,,-99.99,,2013-01-31 03:50:00,
2013-01-30 20:32:00,53.0,-99.9,-100.00,North,351,2.0,4.0,-999,-99.99,,,-99.99,,2013-01-31 04:32:00,
2013-01-30 20:42:00,53.0,-99.9,-100.00,North,351,2.0,4.0,-999,-99.99,,,-99.99,,2013-01-31 04:42:00,
2013-01-30 21:42:00,51.0,-99.9,-100.00,NW,305,0.0,4.0,-999,-99.99,,,-99.99,,2013-01-31 05:42:00,